Home > Weather > Aqtobe > Past weeks

Flag for Kazakhstan Past Weather in Aqtobe, Kazakhstan — Yesterday and Last 2 Weeks

Now
84 °F

Clear.


Feels Like: 83 °F
Forecast: 64 / 90 °F
Wind: 3 mph from Southeast

Location: Aktjubinsk

Current Time: Jul 31, 2016 at 2:49:24 PM

Latest Report: Jul 31, 2016 at 2:00 PM


Visibility: 4 mi

Pressure: 30.01 "Hg

Humidity: 35%

Dew Point: 54 °F

Location of AqtobeLocation

Past Weather in Aqtobe — Graph

°F

Aqtobe Temperature Yesterday

Maximum temperature yesterday: 84 °F (at 1:00 PM)
Minimum temperature yesterday: 59 °F (at 5:30 AM)
Average temperature yesterday: 74 °F

High & Low Weather Summary for the Past Weeks

 TemperatureHumidityPressure
High88 °F (Jul 16, 4:30 PM)100% (Jul 25, 4:30 AM)30.01 "Hg (Jul 25, 4:30 AM)
Low50 °F (Jul 28, 5:30 AM)22% (Jul 16, 6:00 PM)29.59 "Hg (Jul 18, 2:30 PM)
Average71 °F59%29.82 "Hg
* Reported Jul 16 1:00 PM — Jul 31 1:30 PM, Aqtobe, Weather by CustomWeather, © 2016

Note: Actual official high and low records may vary slightly from our data, if they occured in-between our weather recording intervals... More about our weather records

Advertising

Aqtobe Weather History for the Previous 24 Hours

Scroll right to see more
 ConditionsComfort  
Time TempWeatherWind HumidityBarometerVisibility
1:30 PM
Sun, Jul 31
84 °FClear.3 mph37%30.01 "Hg5 mi
1:00 PM84 °FClear.3 mph40%30.01 "Hg4 mi
12:30 PM84 °FClear.6 mph40%30.01 "Hg5 mi
12:00 PM84 °FClear.3 mph40%30.01 "Hg4 mi
11:30 AM82 °FClear.1 mph42%30.01 "Hg3 mi
11:00 AM81 °FClear.3 mph48%30.01 "Hg3 mi
10:30 AM81 °FClear.1 mph48%30.01 "Hg3 mi
10:00 AM79 °FClear.3 mph51%30.01 "Hg3 mi
9:30 AM77 °FClear.1 mph61%30.01 "Hg2 mi
9:00 AM75 °FClear.1 mph61%30.01 "Hg3 mi
8:30 AM73 °FClear.1 mph65%30.01 "Hg4 mi
8:00 AM72 °FClear.3 mph69%29.98 "Hg4 mi
7:30 AM68 °FClear.3 mph78%29.98 "Hg5 mi
7:00 AM64 °FClear.3 mph83%29.98 "Hg4 mi
6:30 AM61 °FClear.3 mph88%29.98 "Hg4 mi
6:00 AM61 °FClear.1 mph88%29.98 "Hg5 mi
5:30 AM63 °FClear.1 mph83%29.98 "Hg4 mi
5:00 AM63 °FClear.1 mph88%29.95 "Hg4 mi
4:30 AM63 °FClear.No wind88%29.95 "Hg4 mi
4:00 AM64 °FClear.1 mph83%29.95 "Hg4 mi
3:30 AM64 °FClear.1 mph83%29.95 "Hg4 mi
3:00 AM64 °FClear.1 mph83%29.95 "Hg4 mi
2:30 AM64 °FClear.No wind83%29.95 "Hg4 mi
2:00 AM64 °FClear.1 mph83%29.95 "Hg4 mi
1:30 AM64 °FClear.1 mph83%29.95 "Hg4 mi
1:00 AM66 °FClear.1 mph78%29.95 "Hg4 mi
12:30 AM66 °FClear.1 mph78%29.95 "Hg6 mi
12:00 AM66 °FClear.3 mph78%29.95 "Hg4 mi
11:30 PM
Sat, Jul 30
68 °FClear.3 mph73%29.95 "Hg4 mi
11:00 PM68 °FClear.8 mph73%29.92 "Hg4 mi
10:30 PM70 °FClear.6 mph69%29.92 "Hg4 mi
10:00 PM70 °FClear.8 mph69%29.92 "Hg4 mi
9:30 PM72 °FClear.6 mph65%29.92 "Hg10 mi
9:00 PM73 °FClear.6 mph57%29.92 "Hg10 mi
8:30 PM77 °FSunny.3 mph51%29.89 "Hg10 mi
8:00 PM79 °FSunny.6 mph42%29.89 "Hg10 mi
7:30 PM81 °FSunny.8 mph39%29.89 "Hg10 mi
7:00 PM82 °FSunny.13 mph35%29.89 "Hg10 mi
6:30 PM82 °FSunny.8 mph35%29.89 "Hg10 mi
6:00 PM82 °FSunny.10 mph35%29.89 "Hg10 mi
5:30 PM84 °FSunny.13 mph31%29.89 "Hg10 mi
5:00 PM84 °FSunny.10 mph35%29.89 "Hg10 mi
4:30 PM82 °FSunny.15 mph40%29.89 "Hg10 mi
4:00 PM82 °FSunny.13 mph35%29.89 "Hg10 mi
3:30 PM84 °FPassing clouds.10 mph31%29.89 "HgN/A
3:00 PM82 °FSunny.10 mph32%29.89 "Hg10 mi
2:30 PM84 °FSunny.13 mph31%29.89 "Hg10 mi
2:00 PM84 °FPassing clouds.10 mph33%29.89 "HgN/A
Weather by CustomWeather, © 2016

See weather overviewHow to use our weather pages